Flag for Canada Weather past 2 weeks in Yellowknife, Northwest Territories, Canada

Now
23 °F

Sunny.


Feels Like: 11 °F
Forecast: 1 / 25 °F
Wind: 14 mph from South

Location: Yellowknife


UV Index: 0 (Low)

Visibility: 15 mi


Pressure: 30.32 "Hg

Humidity: 54%

Dew point: 9 °F

Location of YellowknifeLocation

Historic Weather in Yellowknife

°F

Yellowknife temperature yesterday

Maximum temperature yesterday: 27 °F (at 6:00 PM)
Minimum temperature yesterday: -2 °F (at 6:00 AM)
Average temperature yesterday: 12 °F

Past Weeks' High & Low Weather Summary

 TemperatureHumidityPressure
High70 °F (Apr 10, 11:00 AM)93% (Apr 8, 8:00 AM)30.60 "Hg (Apr 8, 8:00 AM)
Low-29 °F (Apr 2, 5:00 AM)25% (Apr 15, 3:00 PM)29.30 "Hg (Apr 8, 5:00 PM)
Average6 °F61%30.08 "Hg
* Reported Apr 1 2:00 PM — Apr 16 2:00 PM, Yellowknife, Weather by CustomWeather, © 2014

Note: Actual official high and low records may vary slightly from our data, if they occured in-between our weather recording intervals... More about our weather records

Advertising

Historic Weather Conditions — Data for Previous 24 hours

 ConditionsComfort  
Time TempWeatherWind HumidityBarometerVisibility
2:00 PM
Apr 16
19 °FPassing clouds.16 mph58%30.34 "Hg15 mi
1:00 PM18 °FPassing clouds.15 mph62%30.37 "Hg15 mi
12:00 PM14 °FPassing clouds.15 mph67%30.37 "Hg15 mi
11:00 AM12 °FPassing clouds.13 mph62%30.40 "Hg15 mi
10:00 AM9 °FPassing clouds.13 mph61%30.41 "Hg15 mi
9:00 AM7 °FPassing clouds.13 mph61%30.43 "Hg15 mi
8:00 AM5 °FPassing clouds.10 mph60%30.44 "Hg15 mi
7:00 AM1 °FPassing clouds.9 mph65%30.45 "Hg15 mi
6:00 AM3 °FPassing clouds.10 mph66%30.45 "Hg15 mi
5:00 AM5 °FPassing clouds.12 mph60%30.46 "Hg15 mi
4:00 AM7 °FClear.10 mph56%30.47 "Hg15 mi
3:00 AM7 °FClear.8 mph56%30.47 "Hg15 mi
2:00 AM7 °FClear.9 mph56%30.47 "Hg15 mi
1:00 AM9 °FClear.8 mph66%30.48 "Hg15 mi
12:00 AM10 °FClear.5 mph61%30.49 "Hg15 mi
11:00 PM
Apr 15
10 °FClear.5 mph52%30.48 "Hg15 mi
10:00 PM10 °FSunny.2 mph47%30.48 "Hg15 mi
9:00 PM18 °FSunny.3 mph41%30.47 "Hg15 mi
8:00 PM23 °FSunny.6 mph36%30.47 "Hg15 mi
7:00 PM25 °FSunny.6 mph33%30.47 "Hg15 mi
6:00 PM27 °FSunny.2 mph28%30.48 "Hg15 mi
5:00 PM25 °FSunny.2 mph28%30.47 "Hg15 mi
4:00 PM25 °FSunny.2 mph26%30.48 "Hg15 mi
3:00 PM23 °FSunny.No wind25%30.48 "Hg15 mi
Weather by CustomWeather, © 2014

See weather overview